MSR9905 BIKF-HECA

Flight info

Callsign MSR9905
Flight time N/A
Altitude 41000
Route OSKUM3A OSKUM DCT 6215N DCT RATSU/N0462F410 DCT LONAM DCT EDUPO Z739 MISGO DCT DIXAT DCT PODIP DCT TESGA DCT DINKU DCT BESNI DCT LATLO DCT OBEDI DCT GORPA DCT EVTON DCT SOLGU DCT AKIKA DCT MAVAR DCT BITLA UN132 KUMBI L612 BLT A16 DEGDI DCT ALTOX DCT AZ101 DCT AZ001
Aircraft B38M/M-SDE1FGHILORVWXY/HB1

Departure

Time 2026-05-06 14:42
Airport Keflavik International Airport (BIKF)

Arrival

Time N/A
Airport Cairo International Airport (HECA)
Time Latitude Longitude Altitude Speed Heading
2026-05-06 09:37 63.98931 -22.63903 166 ft 0 kts
2026-05-06 14:24 63.98921 -22.63903 167 ft 3 kts
2026-05-06 14:24 63.98902 -22.63903 167 ft 3 kts
2026-05-06 14:24 63.98884 -22.63912 167 ft 3 kts 49°
2026-05-06 14:25 63.98879 -22.63943 167 ft 0 kts 91°
2026-05-06 14:31 63.98879 -22.63939 167 ft 0 kts 93°
2026-05-06 14:32 63.98877 -22.63911 167 ft 4 kts 98°
2026-05-06 14:32 63.98865 -22.63814 166 ft 8 kts 106°
2026-05-06 14:32 63.98853 -22.63634 166 ft 15 kts 91°
2026-05-06 14:32 63.98853 -22.63364 165 ft 18 kts 89°
2026-05-06 14:33 63.98854 -22.63037 164 ft 22 kts 90°
2026-05-06 14:33 63.98854 -22.62656 163 ft 26 kts 90°
2026-05-06 14:33 63.98854 -22.62230 162 ft 28 kts 90°
2026-05-06 14:33 63.98854 -22.61668 162 ft 26 kts 90°
2026-05-06 14:34 63.98854 -22.61419 162 ft 19 kts 89°
2026-05-06 14:34 63.98856 -22.61143 163 ft 15 kts 89°
2026-05-06 14:34 63.98843 -22.60965 163 ft 10 kts 139°
2026-05-06 14:34 63.98763 -22.60945 162 ft 15 kts 179°
2026-05-06 14:35 63.98650 -22.60942 159 ft 17 kts 179°
2026-05-06 14:35 63.98539 -22.60940 156 ft 16 kts 179°
2026-05-06 14:35 63.98420 -22.60937 154 ft 18 kts 179°
2026-05-06 14:35 63.98295 -22.60934 153 ft 19 kts 179°
2026-05-06 14:36 63.98151 -22.60943 152 ft 21 kts 182°
2026-05-06 14:36 63.97998 -22.60949 151 ft 21 kts 180°
2026-05-06 14:36 63.97876 -22.60948 151 ft 17 kts 179°
2026-05-06 14:36 63.97751 -22.60946 150 ft 19 kts 179°
2026-05-06 14:37 63.97624 -22.60943 149 ft 18 kts 179°
2026-05-06 14:37 63.97499 -22.60941 148 ft 17 kts 180°
2026-05-06 14:37 63.97371 -22.60945 148 ft 19 kts 181°
2026-05-06 14:37 63.97227 -22.60949 147 ft 18 kts 180°
2026-05-06 14:38 63.97093 -22.60947 146 ft 20 kts 180°
2026-05-06 14:38 63.96960 -22.60945 145 ft 11 kts 179°
2026-05-06 14:38 63.96868 -22.60944 144 ft 15 kts 179°
2026-05-06 14:38 63.96759 -22.60941 144 ft 16 kts 179°
2026-05-06 14:39 63.96637 -22.60940 143 ft 18 kts 181°
2026-05-06 14:39 63.96525 -22.60946 143 ft 10 kts 179°
2026-05-06 14:39 63.96462 -22.60855 142 ft 13 kts 102°
2026-05-06 14:39 63.96461 -22.60778 142 ft 0 kts 89°
2026-05-06 14:40 63.96461 -22.60773 142 ft 1 kts 89°
2026-05-06 14:40 63.96461 -22.60717 142 ft 6 kts 89°
2026-05-06 14:40 63.96465 -22.60587 141 ft 10 kts 76°
2026-05-06 14:41 63.96518 -22.60537 142 ft 9 kts 356°
2026-05-06 14:41 63.96527 -22.60538 142 ft 0 kts 356°
2026-05-06 14:41 63.96532 -22.60539 142 ft 3 kts 356°
2026-05-06 14:41 63.96626 -22.60549 143 ft 35 kts 359°
2026-05-06 14:42 63.97134 -22.60541 146 ft 108 kts 360°
2026-05-06 14:42 63.98061 -22.60540 278 ft 151 kts
2026-05-06 14:42 63.99137 -22.60520 1155 ft 153 kts
2026-05-06 14:42 64.00203 -22.60555 2167 ft 154 kts
2026-05-06 14:43 64.01292 -22.60683 3011 ft 163 kts
2026-05-06 14:43 64.02511 -22.60797 3509 ft 187 kts
2026-05-06 14:43 64.03908 -22.60677 4057 ft 213 kts
2026-05-06 14:43 64.05385 -22.59873 4716 ft 229 kts 30°
2026-05-06 14:44 64.06502 -22.57274 5630 ft 237 kts 64°
2026-05-06 14:44 64.06811 -22.53516 6626 ft 247 kts 88°
2026-05-06 14:44 64.06720 -22.49632 7793 ft 245 kts 90°
2026-05-06 14:45 64.06375 -22.41496 9443 ft 268 kts 98°
2026-05-06 14:45 64.05754 -22.37400 10277 ft 282 kts 113°
2026-05-06 14:45 64.04761 -22.33491 11200 ft 286 kts 118°
2026-05-06 14:45 64.03614 -22.29680 11994 ft 296 kts 120°
2026-05-06 14:46 64.02480 -22.25611 12639 ft 312 kts 117°
2026-05-06 14:46 64.01339 -22.21285 13352 ft 324 kts 117°
2026-05-06 14:46 64.00205 -22.16896 14323 ft 326 kts 117°
2026-05-06 14:46 63.99055 -22.12390 15186 ft 332 kts 116°
2026-05-06 14:47 63.97895 -22.07815 16087 ft 335 kts 116°
2026-05-06 14:47 63.96731 -22.03205 17001 ft 340 kts 116°
2026-05-06 14:47 63.95545 -21.98504 17912 ft 344 kts 116°
2026-05-06 14:47 63.94346 -21.93758 18802 ft 348 kts 116°
2026-05-06 14:48 63.93135 -21.88974 19616 ft 350 kts 116°
2026-05-06 14:48 63.91912 -21.84153 20336 ft 355 kts 116°
2026-05-06 14:48 63.90671 -21.79264 21098 ft 358 kts 116°
2026-05-06 14:48 63.89415 -21.74337 21832 ft 362 kts 116°
2026-05-06 14:49 63.88161 -21.69427 22542 ft 366 kts 116°
2026-05-06 14:49 63.86887 -21.64449 23255 ft 370 kts 116°
2026-05-06 14:49 63.85590 -21.59392 23908 ft 374 kts 116°
2026-05-06 14:49 63.84277 -21.54286 24460 ft 378 kts 116°
2026-05-06 14:50 63.82943 -21.49112 25000 ft 382 kts 117°
2026-05-06 14:50 63.81596 -21.43895 25537 ft 386 kts 117°
2026-05-06 14:50 63.80230 -21.38619 26052 ft 391 kts 117°
2026-05-06 14:50 63.78846 -21.33285 26566 ft 395 kts 117°
2026-05-06 14:51 63.77445 -21.27897 27056 ft 399 kts 117°
2026-05-06 14:51 63.76368 -21.22252 27538 ft 396 kts 101°
2026-05-06 14:51 63.76049 -21.18116 27869 ft 397 kts 95°
2026-05-06 14:52 63.75760 -21.13833 28142 ft 401 kts 96°
2026-05-06 14:52 63.75335 -21.07569 28618 ft 406 kts 96°
2026-05-06 14:52 63.74921 -21.01234 28964 ft 412 kts 96°
2026-05-06 14:52 63.74508 -20.94797 29384 ft 417 kts 96°
2026-05-06 14:53 63.74094 -20.88301 29825 ft 421 kts 96°
2026-05-06 14:53 63.73678 -20.81804 30244 ft 425 kts 96°
2026-05-06 14:53 63.73251 -20.75168 30563 ft 429 kts 96°
2026-05-06 14:53 63.72818 -20.68479 30892 ft 433 kts 96°
2026-05-06 14:54 63.72376 -20.61719 31212 ft 437 kts 96°
2026-05-06 14:54 63.71929 -20.54904 31536 ft 441 kts 96°
2026-05-06 14:54 63.71440 -20.48063 31900 ft 444 kts 101°
2026-05-06 14:54 63.70335 -20.41532 32246 ft 450 kts 118°
2026-05-06 14:55 63.68688 -20.35485 32548 ft 455 kts 120°
2026-05-06 14:55 63.67030 -20.29388 32675 ft 459 kts 120°
2026-05-06 14:55 63.65359 -20.23343 33142 ft 462 kts 120°
2026-05-06 14:55 63.63639 -20.17198 33445 ft 466 kts 121°
2026-05-06 14:56 63.61897 -20.11019 33749 ft 470 kts 121°
2026-05-06 14:56 63.60143 -20.04812 34112 ft 471 kts 121°
2026-05-06 14:56 63.58385 -19.98617 34451 ft 472 kts 121°
2026-05-06 14:56 63.56610 -19.92376 34675 ft 476 kts 121°
2026-05-06 14:57 63.54818 -19.86086 34872 ft 481 kts 121°
2026-05-06 14:57 63.53014 -19.79780 35265 ft 480 kts 121°
2026-05-06 14:57 63.51225 -19.73544 35495 ft 484 kts 121°
2026-05-06 14:57 63.49403 -19.67210 35835 ft 484 kts 122°
2026-05-06 14:58 63.47585 -19.60908 36322 ft 481 kts 121°
2026-05-06 14:58 63.45765 -19.54609 36606 ft 483 kts 122°
2026-05-06 14:58 63.43949 -19.48353 37112 ft 479 kts 122°
2026-05-06 14:58 63.42133 -19.42105 37406 ft 481 kts 121°
2026-05-06 14:59 63.40300 -19.35819 37627 ft 484 kts 122°
2026-05-06 14:59 63.38463 -19.29538 37980 ft 484 kts 122°
2026-05-06 14:59 63.36615 -19.23239 38255 ft 485 kts 122°
2026-05-06 14:59 63.34766 -19.16952 38552 ft 486 kts 122°
2026-05-06 15:00 63.32940 -19.10756 38911 ft 485 kts 122°
2026-05-06 15:00 63.31100 -19.04533 39074 ft 486 kts 122°
2026-05-06 15:00 63.29240 -18.98264 39176 ft 484 kts 123°
2026-05-06 15:01 63.25530 -18.85800 39177 ft 484 kts 122°
2026-05-06 15:01 63.21791 -18.73316 39151 ft 488 kts 122°
2026-05-06 15:02 63.18060 -18.60917 39154 ft 484 kts 123°
2026-05-06 15:02 63.14322 -18.48567 39146 ft 484 kts 123°
2026-05-06 15:03 63.10566 -18.36226 39162 ft 485 kts 123°
2026-05-06 15:03 63.06788 -18.23881 39139 ft 488 kts 123°
2026-05-06 15:04 63.03007 -18.11594 39145 ft 486 kts 123°
2026-05-06 15:04 62.99211 -17.99321 39157 ft 482 kts 124°
2026-05-06 15:05 62.95429 -17.87159 39128 ft 484 kts 124°
2026-05-06 15:05 62.91607 -17.74935 39117 ft 487 kts 124°
2026-05-06 15:06 62.87757 -17.62692 39133 ft 487 kts 124°
2026-05-06 15:06 62.83936 -17.50600 39130 ft 486 kts 124°
2026-05-06 15:07 62.80102 -17.38530 39114 ft 482 kts 124°
2026-05-06 15:07 62.76246 -17.26458 39118 ft 485 kts 124°
2026-05-06 15:08 62.72358 -17.14353 39127 ft 489 kts 125°
2026-05-06 15:08 62.68487 -17.02362 39095 ft 487 kts 125°
2026-05-06 15:09 62.64591 -16.90356 39103 ft 485 kts 125°
2026-05-06 15:09 62.60696 -16.78416 39099 ft 486 kts 126°
2026-05-06 15:10 62.56762 -16.66422 39085 ft 491 kts 126°
2026-05-06 15:10 62.52820 -16.54463 39090 ft 488 kts 126°
2026-05-06 15:11 62.48873 -16.42552 39090 ft 483 kts 126°
2026-05-06 15:11 62.44957 -16.30797 39082 ft 485 kts 126°
2026-05-06 15:12 62.40993 -16.18958 39052 ft 489 kts 126°
2026-05-06 15:12 62.37012 -16.07132 39075 ft 492 kts 126°
2026-05-06 15:13 62.33002 -15.95278 39048 ft 489 kts 127°
2026-05-06 15:13 62.29020 -15.83568 39060 ft 482 kts 127°
2026-05-06 15:14 62.25037 -15.71916 39075 ft 487 kts 127°
2026-05-06 15:14 62.21033 -15.60262 39031 ft 492 kts 128°
2026-05-06 15:15 62.16966 -15.48482 39056 ft 490 kts 127°
2026-05-06 15:15 62.12913 -15.36788 39053 ft 488 kts 127°
2026-05-06 15:16 62.08875 -15.25196 39036 ft 485 kts 128°
2026-05-06 15:16 62.04819 -15.13605 39030 ft 488 kts 128°
2026-05-06 15:17 62.00785 -15.02020 39001 ft 495 kts 124°
2026-05-06 15:17 61.99237 -14.95496 39025 ft 494 kts 110°
2026-05-06 15:17 61.98050 -14.88644 39038 ft 491 kts 111°
2026-05-06 15:18 61.95623 -14.75094 39012 ft 492 kts 111°
2026-05-06 15:18 61.93182 -14.61452 39020 ft 491 kts 111°
2026-05-06 15:19 61.90769 -14.48044 39013 ft 493 kts 111°
2026-05-06 15:19 61.88301 -14.34443 39008 ft 491 kts 111°
2026-05-06 15:20 61.85840 -14.20963 38990 ft 493 kts 111°
2026-05-06 15:20 61.83353 -14.07444 39022 ft 491 kts 111°
2026-05-06 15:21 61.80880 -13.94088 38985 ft 493 kts 112°
2026-05-06 15:21 61.78367 -13.80607 39004 ft 490 kts 112°
2026-05-06 15:22 61.75849 -13.67197 38998 ft 494 kts 112°
2026-05-06 15:22 61.73312 -13.53775 38992 ft 490 kts 112°
2026-05-06 15:23 61.70771 -13.40419 38992 ft 494 kts 112°
2026-05-06 15:23 61.68222 -13.27121 38999 ft 490 kts 112°
2026-05-06 15:24 61.65656 -13.13817 38995 ft 493 kts 113°
2026-05-06 15:24 61.63069 -13.00492 38997 ft 489 kts 113°
2026-05-06 15:25 61.60482 -12.87257 38977 ft 492 kts 113°
2026-05-06 15:25 61.57884 -12.74055 39005 ft 490 kts 113°
2026-05-06 15:26 61.55280 -12.60907 38985 ft 490 kts 114°
2026-05-06 15:26 61.52651 -12.47718 38996 ft 489 kts 114°
2026-05-06 15:27 61.50015 -12.34584 38994 ft 489 kts 114°
2026-05-06 15:27 61.47383 -12.21548 38984 ft 489 kts 114°
2026-05-06 15:28 61.44727 -12.08487 38985 ft 489 kts 114°
2026-05-06 15:28 61.42050 -11.95399 38991 ft 489 kts 114°
2026-05-06 15:29 61.39370 -11.82382 38976 ft 488 kts 114°
2026-05-06 15:29 61.36688 -11.69437 38983 ft 490 kts 114°
2026-05-06 15:30 61.33982 -11.56458 38988 ft 489 kts 115°
2026-05-06 15:30 61.31257 -11.43469 38993 ft 490 kts 115°
2026-05-06 15:31 61.28520 -11.30505 38995 ft 489 kts 115°
2026-05-06 15:31 61.25789 -11.17651 38999 ft 489 kts 115°
2026-05-06 15:32 61.21646 -10.98300 38992 ft 490 kts 115°
2026-05-06 15:32 61.18867 -10.85416 38999 ft 490 kts 115°
2026-05-06 15:33 61.16091 -10.72630 38995 ft 489 kts 115°
2026-05-06 15:33 61.13293 -10.59818 38992 ft 489 kts 115°
2026-05-06 15:34 61.10477 -10.47001 38992 ft 489 kts 115°
2026-05-06 15:34 61.07653 -10.34202 38998 ft 490 kts 115°
2026-05-06 15:35 61.04842 -10.21535 38997 ft 489 kts 116°
2026-05-06 15:35 61.01997 -10.08788 38994 ft 489 kts 116°
2026-05-06 15:36 60.98733 -9.96584 38995 ft 484 kts 131°
2026-05-06 15:36 60.94587 -9.85573 38977 ft 488 kts 129°
2026-05-06 15:37 60.90467 -9.74598 38995 ft 489 kts 129°
2026-05-06 15:37 60.86299 -9.63575 39001 ft 488 kts 129°
2026-05-06 15:38 60.82126 -9.52597 38997 ft 487 kts 130°
2026-05-06 15:38 60.77953 -9.41667 39000 ft 487 kts 130°
2026-05-06 15:39 60.73808 -9.30864 39005 ft 487 kts 130°
2026-05-06 15:39 60.69614 -9.19984 38997 ft 488 kts 130°
2026-05-06 15:40 60.65401 -9.09104 38998 ft 488 kts 130°
2026-05-06 15:40 60.61180 -8.98259 39008 ft 488 kts 130°
2026-05-06 15:41 60.56959 -8.87459 39007 ft 488 kts 130°
2026-05-06 15:41 60.52756 -8.76759 38999 ft 487 kts 130°
2026-05-06 15:42 60.48520 -8.66024 39011 ft 487 kts 130°
2026-05-06 15:42 60.44287 -8.55347 39002 ft 488 kts 131°
2026-05-06 15:43 60.40047 -8.44700 39004 ft 489 kts 131°
2026-05-06 15:43 60.35773 -8.34018 39007 ft 489 kts 131°
2026-05-06 15:44 60.31489 -8.23359 39007 ft 489 kts 131°
2026-05-06 15:44 60.27205 -8.12751 39007 ft 489 kts 131°
2026-05-06 15:45 60.22903 -8.02145 39023 ft 489 kts 131°
2026-05-06 15:45 60.18622 -7.91641 39011 ft 490 kts 131°
2026-05-06 15:46 60.14292 -7.81065 39010 ft 490 kts 131°
2026-05-06 15:46 60.09965 -7.70543 39018 ft 490 kts 132°
2026-05-06 15:47 60.05618 -7.60021 39015 ft 490 kts 132°
2026-05-06 15:47 60.01292 -7.49599 39014 ft 490 kts 132°
2026-05-06 15:48 59.96940 -7.39161 39020 ft 490 kts 132°
2026-05-06 15:48 59.92573 -7.28732 39016 ft 490 kts 132°
2026-05-06 15:49 59.88196 -7.18327 39016 ft 490 kts 132°
2026-05-06 15:49 59.83840 -7.08019 39021 ft 490 kts 132°
2026-05-06 15:50 59.79456 -6.97691 39021 ft 490 kts 133°
2026-05-06 15:50 59.75058 -6.87376 39021 ft 490 kts 133°
2026-05-06 15:51 59.70646 -6.77075 38994 ft 490 kts 133°
2026-05-06 15:51 59.66261 -6.66882 39018 ft 489 kts 133°
2026-05-06 15:52 59.61849 -6.56672 39021 ft 489 kts 133°
2026-05-06 15:52 59.57425 -6.46479 39021 ft 488 kts 133°
2026-05-06 15:53 59.53003 -6.36336 39020 ft 488 kts 133°
2026-05-06 15:53 59.48607 -6.26295 39020 ft 488 kts 133°
2026-05-06 15:54 59.44166 -6.16196 39003 ft 488 kts 133°
2026-05-06 15:54 59.39711 -6.06110 39020 ft 489 kts 133°
2026-05-06 15:55 59.35248 -5.96050 39020 ft 489 kts 134°
2026-05-06 15:55 59.30817 -5.86105 39026 ft 489 kts 134°
2026-05-06 15:56 59.26340 -5.76102 39029 ft 489 kts 134°
2026-05-06 15:56 59.21846 -5.66103 39026 ft 489 kts 134°
2026-05-06 15:57 59.17347 -5.56135 39015 ft 489 kts 134°
2026-05-06 15:57 59.12877 -5.46276 39030 ft 490 kts 134°
2026-05-06 15:58 59.08363 -5.36360 39028 ft 490 kts 134°
2026-05-06 15:58 59.03839 -5.26468 39029 ft 490 kts 134°
2026-05-06 15:59 58.99317 -5.16619 39029 ft 490 kts 134°
2026-05-06 15:59 58.94807 -5.06842 39036 ft 490 kts 134°
2026-05-06 16:00 58.90259 -4.97022 39019 ft 490 kts 134°
2026-05-06 16:00 58.85705 -4.87231 39028 ft 490 kts 134°
2026-05-06 16:01 58.81151 -4.77483 39027 ft 489 kts 135°
2026-05-06 16:01 58.76586 -4.67751 39026 ft 489 kts 135°
2026-05-06 16:02 58.72044 -4.58109 39018 ft 489 kts 135°
2026-05-06 16:02 58.67465 -4.48430 39024 ft 489 kts 135°
2026-05-06 16:03 58.62889 -4.38796 39033 ft 489 kts 135°
2026-05-06 16:03 58.58290 -4.29158 39019 ft 489 kts 135°
2026-05-06 16:04 58.53721 -4.19620 39027 ft 489 kts 135°
2026-05-06 16:04 58.49119 -4.10053 39017 ft 489 kts 135°
2026-05-06 16:05 58.44502 -4.00495 39022 ft 489 kts 135°
2026-05-06 16:05 58.39879 -3.90965 39004 ft 488 kts 135°
2026-05-06 16:06 58.35267 -3.81497 39013 ft 487 kts 136°
2026-05-06 16:06 58.30692 -3.72143 39014 ft 487 kts 136°
2026-05-06 16:07 58.26069 -3.62729 39009 ft 487 kts 136°
2026-05-06 16:07 58.21437 -3.53336 39020 ft 487 kts 136°
2026-05-06 16:08 58.16802 -3.43975 39022 ft 487 kts 136°
2026-05-06 16:08 58.12207 -3.34732 39013 ft 486 kts 136°
2026-05-06 16:09 58.07564 -3.25432 39016 ft 486 kts 136°
2026-05-06 16:09 58.02920 -3.16164 39027 ft 486 kts 136°
2026-05-06 16:10 57.98269 -3.06923 39020 ft 486 kts 136°
2026-05-06 16:10 57.93649 -2.97780 39024 ft 487 kts 136°
2026-05-06 16:11 57.88972 -2.88559 39012 ft 487 kts 136°
2026-05-06 16:11 57.84304 -2.79395 39025 ft 485 kts 137°
2026-05-06 16:12 57.79646 -2.70286 39028 ft 485 kts 137°
2026-05-06 16:12 57.74974 -2.61187 39034 ft 485 kts 137°
2026-05-06 16:13 57.70324 -2.52166 39035 ft 485 kts 137°
2026-05-06 16:13 57.65638 -2.43111 39035 ft 484 kts 137°
2026-05-06 16:14 57.60962 -2.34110 39030 ft 483 kts 137°
2026-05-06 16:14 57.56282 -2.25138 39046 ft 482 kts 137°
2026-05-06 16:15 57.51629 -2.16252 39045 ft 482 kts 137°
2026-05-06 16:15 57.46945 -2.07341 39048 ft 482 kts 137°
2026-05-06 16:16 57.42256 -1.98458 39048 ft 482 kts 137°
2026-05-06 16:16 57.37553 -1.89580 39050 ft 482 kts 137°
2026-05-06 16:17 57.32876 -1.80788 39052 ft 482 kts 137°
2026-05-06 16:17 57.28170 -1.71974 39058 ft 482 kts 137°
2026-05-06 16:18 57.23450 -1.63166 39056 ft 482 kts 138°
2026-05-06 16:18 57.18727 -1.54389 39059 ft 482 kts 138°
2026-05-06 16:19 57.14030 -1.45693 39065 ft 482 kts 138°
2026-05-06 16:19 57.09299 -1.36969 39058 ft 482 kts 138°
2026-05-06 16:20 57.04555 -1.28251 39061 ft 482 kts 138°
2026-05-06 16:20 56.99808 -1.19563 39064 ft 482 kts 138°
2026-05-06 16:21 56.95091 -1.10964 39066 ft 481 kts 138°
2026-05-06 16:21 56.90351 -1.02354 39069 ft 481 kts 138°
2026-05-06 16:22 56.85598 -0.93754 39067 ft 481 kts 138°
2026-05-06 16:22 56.80840 -0.85175 39063 ft 479 kts 138°
2026-05-06 16:23 56.76094 -0.76652 39069 ft 479 kts 138°
2026-05-06 16:23 56.71385 -0.68227 39073 ft 479 kts 138°
2026-05-06 16:24 56.66627 -0.59745 39069 ft 479 kts 138°
2026-05-06 16:24 56.61860 -0.51279 39072 ft 479 kts 139°
2026-05-06 16:25 56.57101 -0.42860 39055 ft 479 kts 139°
2026-05-06 16:25 56.52366 -0.34512 39074 ft 478 kts 139°
2026-05-06 16:26 56.47592 -0.26129 39072 ft 478 kts 139°
2026-05-06 16:26 56.42811 -0.17762 39072 ft 478 kts 139°
2026-05-06 16:27 56.38036 -0.09437 39070 ft 478 kts 139°
2026-05-06 16:27 56.33282 -0.01179 39069 ft 478 kts 139°
2026-05-06 16:28 56.28491 0.07113 39058 ft 477 kts 139°
2026-05-06 16:28 56.23707 0.15362 39068 ft 476 kts 139°
2026-05-06 16:29 56.18929 0.23570 39072 ft 476 kts 139°
2026-05-06 16:29 56.14169 0.31720 39072 ft 476 kts 139°
2026-05-06 16:30 56.10148 0.38580 39072 ft 476 kts 139°
2026-05-06 16:30 56.04570 0.48062 39070 ft 476 kts 139°
2026-05-06 16:31 55.99769 0.56193 39070 ft 476 kts 139°
2026-05-06 16:31 55.94992 0.64253 39068 ft 475 kts 140°
2026-05-06 16:32 55.90179 0.72345 39067 ft 475 kts 140°
2026-05-06 16:32 55.85364 0.80414 39064 ft 475 kts 140°
2026-05-06 16:33 55.80552 0.88446 39065 ft 475 kts 140°
2026-05-06 16:34 55.73348 1.00418 39061 ft 475 kts 140°
2026-05-06 16:34 55.68522 1.08404 39064 ft 475 kts 140°
2026-05-06 16:35 55.63700 1.16354 39057 ft 473 kts 140°
2026-05-06 16:35 55.58883 1.24268 39058 ft 473 kts 140°
2026-05-06 16:36 55.54094 1.32110 39062 ft 473 kts 140°
2026-05-06 16:36 55.49267 1.39985 39041 ft 472 kts 140°
2026-05-06 16:37 55.44451 1.47815 39049 ft 472 kts 140°
2026-05-06 16:37 55.39668 1.55565 39055 ft 472 kts 140°
2026-05-06 16:38 55.34836 1.63367 39052 ft 472 kts 140°
2026-05-06 16:38 55.30040 1.71084 39053 ft 471 kts 141°
2026-05-06 16:39 55.25202 1.78842 39044 ft 471 kts 141°
2026-05-06 16:39 55.20367 1.86568 39048 ft 471 kts 141°
2026-05-06 16:40 55.15526 1.94279 39049 ft 471 kts 141°
2026-05-06 16:40 55.10716 2.01912 39046 ft 471 kts 141°
2026-05-06 16:41 55.05864 2.09586 39045 ft 471 kts 141°
2026-05-06 16:41 55.01010 2.17238 39045 ft 471 kts 141°
2026-05-06 16:42 54.96149 2.24875 39034 ft 470 kts 141°
2026-05-06 16:42 54.91323 2.32430 39041 ft 470 kts 141°
2026-05-06 16:43 54.86459 2.40021 39042 ft 470 kts 141°
2026-05-06 16:43 54.81587 2.47596 39034 ft 470 kts 141°
2026-05-06 16:44 54.76714 2.55150 39031 ft 470 kts 141°
2026-05-06 16:44 54.71875 2.62624 39012 ft 470 kts 141°
2026-05-06 16:45 54.66998 2.70132 39022 ft 469 kts 141°
2026-05-06 16:45 54.62126 2.77608 39030 ft 469 kts 141°
2026-05-06 16:46 54.57248 2.85074 39027 ft 469 kts 141°
2026-05-06 16:46 54.52373 2.92509 39026 ft 469 kts 141°
2026-05-06 16:47 54.47519 2.99891 39022 ft 469 kts 142°
2026-05-06 16:47 54.42630 3.07301 39014 ft 469 kts 141°
2026-05-06 16:48 54.37735 3.14696 39014 ft 469 kts 142°
2026-05-06 16:48 54.32847 3.22058 39007 ft 468 kts 142°
2026-05-06 16:49 54.27992 3.29345 39008 ft 467 kts 142°
2026-05-06 16:49 54.23107 3.36654 39009 ft 466 kts 142°
2026-05-06 16:50 54.18227 3.43935 38989 ft 466 kts 142°
2026-05-06 16:50 54.13385 3.51134 38999 ft 465 kts 142°
2026-05-06 16:51 54.08504 3.58368 39000 ft 465 kts 142°
2026-05-06 16:51 54.03623 3.65580 38999 ft 465 kts 142°
2026-05-06 16:52 53.98749 3.72759 38986 ft 464 kts 142°
2026-05-06 16:52 53.93902 3.79875 38987 ft 463 kts 142°
2026-05-06 16:53 53.89022 3.87019 38982 ft 464 kts 142°
2026-05-06 16:53 53.84119 3.94101 38983 ft 462 kts 147°
2026-05-06 16:54 53.78718 3.99843 38956 ft 460 kts 151°
2026-05-06 16:54 53.73309 4.05600 38983 ft 460 kts 151°
2026-05-06 16:55 53.67890 4.11350 38980 ft 460 kts 151°
2026-05-06 16:55 53.65222 4.14176 38832 ft 458 kts 150°
2026-05-06 16:55 53.62521 4.17030 38945 ft 459 kts 150°
2026-05-06 16:56 53.57114 4.22734 38967 ft 459 kts 150°
2026-05-06 16:56 53.51707 4.28419 38971 ft 459 kts 151°
2026-05-06 16:57 53.46294 4.34094 38963 ft 459 kts 151°
2026-05-06 16:57 53.40916 4.39716 38962 ft 458 kts 151°
2026-05-06 16:58 53.35510 4.45348 38954 ft 458 kts 151°
2026-05-06 16:58 53.30094 4.50975 38958 ft 458 kts 151°
2026-05-06 16:59 53.24675 4.56588 38953 ft 458 kts 151°
2026-05-06 16:59 53.19291 4.62148 38957 ft 458 kts 151°
2026-05-06 17:00 53.13876 4.67723 38945 ft 458 kts 151°
2026-05-06 17:00 53.08463 4.73279 38942 ft 457 kts 151°
2026-05-06 17:01 53.03051 4.78817 38943 ft 457 kts 151°
2026-05-06 17:01 52.97638 4.84340 38945 ft 457 kts 151°
2026-05-06 17:02 52.92266 4.89805 38947 ft 457 kts 151°
2026-05-06 17:02 52.86848 4.95301 38940 ft 456 kts 151°
2026-05-06 17:03 52.81443 5.00767 38938 ft 455 kts 151°
2026-05-06 17:03 52.76037 5.06218 38930 ft 456 kts 151°
2026-05-06 17:04 52.70667 5.11617 38927 ft 456 kts 151°
2026-05-06 17:04 52.65253 5.17044 38913 ft 455 kts 151°
2026-05-06 17:05 52.59848 5.22447 38914 ft 453 kts 151°
2026-05-06 17:05 52.54457 5.27820 38913 ft 453 kts 151°
2026-05-06 17:06 52.49984 5.32265 38917 ft 453 kts 151°
2026-05-06 17:06 52.43705 5.38488 38911 ft 453 kts 152°
2026-05-06 17:07 52.38300 5.43829 38901 ft 454 kts 151°
2026-05-06 17:07 52.33800 5.48262 38908 ft 455 kts 152°
2026-05-06 17:08 52.28374 5.53595 38916 ft 456 kts 152°
2026-05-06 17:08 52.22941 5.58918 38908 ft 456 kts 152°
2026-05-06 17:09 52.17503 5.64232 38911 ft 456 kts 152°
2026-05-06 17:09 52.12063 5.69534 38904 ft 455 kts 152°
2026-05-06 17:10 52.06680 5.74767 38916 ft 454 kts 152°
2026-05-06 17:10 52.01252 5.80029 38895 ft 455 kts 152°
2026-05-06 17:11 51.96239 5.86250 38894 ft 460 kts 132°
2026-05-06 17:11 51.92029 5.94071 38885 ft 461 kts 134°
2026-05-06 17:12 51.87788 6.01827 38884 ft 460 kts 134°
2026-05-06 17:12 51.83564 6.09593 38883 ft 460 kts 134°
2026-05-06 17:13 51.79342 6.17352 38885 ft 460 kts 134°
2026-05-06 17:13 51.75108 6.25100 38883 ft 460 kts 134°
2026-05-06 17:14 51.70909 6.32754 38879 ft 459 kts 134°
2026-05-06 17:14 51.66671 6.40457 38880 ft 459 kts 134°
2026-05-06 17:15 51.62435 6.48134 38871 ft 459 kts 135°
2026-05-06 17:15 51.58194 6.55800 38876 ft 458 kts 135°
2026-05-06 17:16 51.53961 6.63430 38872 ft 458 kts 135°
2026-05-06 17:16 51.49709 6.71068 38865 ft 459 kts 135°
2026-05-06 17:17 51.45490 6.78625 38871 ft 456 kts 135°
2026-05-06 17:17 51.41263 6.86179 38864 ft 456 kts 134°
2026-05-06 17:18 51.37305 6.94128 38872 ft 458 kts 131°
2026-05-06 17:18 51.33334 7.02047 38862 ft 455 kts 132°
2026-05-06 17:19 51.29356 7.09935 38874 ft 455 kts 132°
2026-05-06 17:19 51.25470 7.17848 38854 ft 456 kts 131°
2026-05-06 17:20 51.21612 7.25879 38863 ft 457 kts 131°
2026-05-06 17:20 51.17731 7.33913 38856 ft 457 kts 131°
2026-05-06 17:21 51.13844 7.41933 38858 ft 457 kts 131°
2026-05-06 17:21 51.09950 7.49942 38982 ft 457 kts 131°
2026-05-06 17:22 51.06053 7.57935 38859 ft 459 kts 131°
2026-05-06 17:22 51.02172 7.65868 38840 ft 457 kts 131°
2026-05-06 17:23 50.98267 7.73827 38844 ft 457 kts 131°
2026-05-06 17:23 50.94329 7.81736 38820 ft 455 kts 136°
2026-05-06 17:24 50.89967 7.88948 38822 ft 454 kts 137°
2026-05-06 17:24 50.85562 7.96120 38807 ft 454 kts 137°
2026-05-06 17:25 50.81179 8.03222 38795 ft 454 kts 137°
2026-05-06 17:25 50.76763 8.10358 38802 ft 454 kts 138°
2026-05-06 17:26 50.72352 8.17464 38798 ft 454 kts 138°
2026-05-06 17:26 50.67926 8.24574 38801 ft 454 kts 138°
2026-05-06 17:27 50.63497 8.31668 38805 ft 454 kts 138°
2026-05-06 17:27 50.59090 8.38708 38806 ft 454 kts 138°
2026-05-06 17:28 50.54668 8.45751 38798 ft 453 kts 138°
2026-05-06 17:28 50.50233 8.52795 38804 ft 453 kts 138°
2026-05-06 17:29 50.45803 8.59815 38810 ft 453 kts 138°
2026-05-06 17:29 50.41359 8.66817 38807 ft 453 kts 139°
2026-05-06 17:30 50.36916 8.73800 38802 ft 453 kts 139°
2026-05-06 17:30 50.32498 8.80737 38804 ft 453 kts 139°
2026-05-06 17:31 50.28041 8.87704 38797 ft 453 kts 139°
2026-05-06 17:31 50.23590 8.94637 38794 ft 453 kts 139°
2026-05-06 17:32 50.19123 9.01586 38805 ft 453 kts 139°
2026-05-06 17:32 50.14659 9.08515 38799 ft 453 kts 139°
2026-05-06 17:33 50.10223 9.15391 38806 ft 453 kts 139°
2026-05-06 17:33 50.05771 9.22274 38796 ft 451 kts 139°
2026-05-06 17:34 50.01312 9.29145 38804 ft 452 kts 139°
2026-05-06 17:34 49.96840 9.36024 38792 ft 452 kts 139°
2026-05-06 17:35 49.92367 9.42893 38795 ft 452 kts 139°
2026-05-06 17:35 49.87905 9.49735 38795 ft 452 kts 139°
2026-05-06 17:36 49.81231 9.59946 38800 ft 452 kts 139°
2026-05-06 17:36 49.76752 9.66785 38795 ft 453 kts 139°
2026-05-06 17:37 49.72258 9.73634 38802 ft 454 kts 139°
2026-05-06 17:37 49.67766 9.80467 38800 ft 454 kts 139°
2026-05-06 17:38 49.63264 9.87304 38805 ft 454 kts 139°
2026-05-06 17:38 49.58762 9.94138 38793 ft 454 kts 139°
2026-05-06 17:39 49.54308 10.00954 38804 ft 455 kts 139°
2026-05-06 17:39 49.49860 10.07801 38806 ft 453 kts 139°
2026-05-06 17:40 49.45411 10.14666 38805 ft 452 kts 139°
2026-05-06 17:40 49.40966 10.21515 38808 ft 453 kts 139°
2026-05-06 17:41 49.36522 10.28356 38814 ft 453 kts 139°
2026-05-06 17:41 49.32097 10.35162 38805 ft 450 kts 139°
2026-05-06 17:42 49.27710 10.41906 38827 ft 450 kts 139°
2026-05-06 17:42 49.23315 10.48717 38828 ft 449 kts 139°
2026-05-06 17:43 49.18922 10.55529 38842 ft 449 kts 139°
2026-05-06 17:44 49.11689 10.66720 38811 ft 450 kts 139°
2026-05-06 17:44 49.05552 10.75192 38846 ft 444 kts 148°
2026-05-06 17:45 49.00652 10.81000 38818 ft 447 kts 146°
2026-05-06 17:45 48.95817 10.86904 38818 ft 447 kts 146°
2026-05-06 17:46 48.90977 10.92830 38824 ft 447 kts 146°
2026-05-06 17:46 48.86133 10.98749 38818 ft 447 kts 146°
2026-05-06 17:47 48.81276 11.04669 38824 ft 448 kts 146°
2026-05-06 17:47 48.76455 11.10530 38828 ft 448 kts 146°
2026-05-06 17:48 48.71614 11.16399 38822 ft 443 kts 146°
2026-05-06 17:48 48.66816 11.22204 38828 ft 443 kts 146°
2026-05-06 17:49 48.62314 11.28644 38793 ft 449 kts 137°
2026-05-06 17:49 48.58105 11.35595 38752 ft 450 kts 137°
2026-05-06 17:50 48.53891 11.42586 38780 ft 452 kts 137°
2026-05-06 17:50 48.49663 11.49588 38806 ft 449 kts 137°
2026-05-06 17:51 48.45481 11.56495 38803 ft 445 kts 138°
2026-05-06 17:51 48.41350 11.63300 38801 ft 445 kts 138°
2026-05-06 17:52 48.37179 11.70153 38782 ft 445 kts 138°
2026-05-06 17:52 48.32989 11.77018 38800 ft 445 kts 138°
2026-05-06 17:53 48.28796 11.83872 38802 ft 445 kts 138°
2026-05-06 17:53 48.24612 11.90693 38801 ft 445 kts 138°
2026-05-06 17:54 48.20420 11.97509 38804 ft 445 kts 138°
2026-05-06 17:54 48.16221 12.04319 38772 ft 445 kts 139°
2026-05-06 17:55 48.12055 12.11057 38793 ft 443 kts 139°
2026-05-06 17:55 48.07872 12.17805 38782 ft 443 kts 139°
2026-05-06 17:56 48.03674 12.24561 38782 ft 443 kts 139°
2026-05-06 17:56 47.99471 12.31307 38761 ft 443 kts 139°
2026-05-06 17:57 47.95266 12.38040 38758 ft 445 kts 138°
2026-05-06 17:57 47.91077 12.44729 38742 ft 445 kts 138°
2026-05-06 17:58 47.86849 12.51463 38746 ft 445 kts 138°
2026-05-06 17:58 47.82617 12.58188 38742 ft 445 kts 139°
2026-05-06 17:59 47.78382 12.64898 38772 ft 445 kts 139°
2026-05-06 17:59 47.74154 12.71585 38753 ft 445 kts 139°
2026-05-06 18:00 47.69938 12.78236 38766 ft 447 kts 139°
2026-05-06 18:00 47.65551 12.84792 38781 ft 447 kts 140°
2026-05-06 18:01 47.61155 12.91302 38792 ft 447 kts 140°
2026-05-06 18:01 47.56770 12.97788 38771 ft 446 kts 140°
2026-05-06 18:02 47.52367 13.04286 38771 ft 447 kts 140°
2026-05-06 18:02 47.47948 13.10791 38765 ft 449 kts 140°
2026-05-06 18:03 47.43550 13.17249 38766 ft 450 kts 140°
2026-05-06 18:04 47.35447 13.29104 38792 ft 449 kts 140°
2026-05-06 18:04 47.30155 13.36440 38777 ft 447 kts 142°
2026-05-06 18:05 47.25588 13.42601 38823 ft 444 kts 143°
2026-05-06 18:06 47.16264 13.55162 38857 ft 447 kts 143°
2026-05-06 18:06 47.12031 13.60845 38844 ft 446 kts 143°
2026-05-06 18:07 47.07456 13.66975 38833 ft 446 kts 143°
2026-05-06 18:07 47.02907 13.73050 38869 ft 447 kts 143°
2026-05-06 18:08 46.98319 13.79165 38871 ft 446 kts 143°
2026-05-06 18:08 46.93721 13.85279 38842 ft 449 kts 143°
2026-05-06 18:09 46.89077 13.91485 38857 ft 453 kts 142°
2026-05-06 18:09 46.84434 13.97659 38859 ft 452 kts 143°
2026-05-06 18:10 46.79788 14.03790 38871 ft 449 kts 143°
2026-05-06 18:10 46.75158 14.09883 38865 ft 447 kts 143°
2026-05-06 18:11 46.70538 14.15948 38852 ft 447 kts 143°
2026-05-06 18:11 46.65941 14.21969 38854 ft 448 kts 143°
2026-05-06 18:12 46.61309 14.28021 38858 ft 448 kts 143°
2026-05-06 18:12 46.56663 14.34077 38859 ft 449 kts 143°
2026-05-06 18:13 46.52006 14.40133 38878 ft 449 kts 143°
2026-05-06 18:13 46.47392 14.46116 38874 ft 449 kts 143°
2026-05-06 18:14 46.42737 14.52141 38892 ft 450 kts 143°
2026-05-06 18:14 46.38048 14.58194 38907 ft 450 kts 143°
2026-05-06 18:15 46.33359 14.64233 38917 ft 453 kts 143°
2026-05-06 18:15 46.28685 14.70240 38910 ft 453 kts 144°
2026-05-06 18:16 46.23981 14.76267 38927 ft 452 kts 144°
2026-05-06 18:16 46.19265 14.82298 38897 ft 453 kts 143°
2026-05-06 18:17 46.14539 14.88327 38893 ft 454 kts 143°
2026-05-06 18:17 46.09848 14.94297 38909 ft 454 kts 143°
2026-05-06 18:18 46.05115 15.00306 38918 ft 454 kts 143°
2026-05-06 18:18 46.00372 15.06313 38917 ft 454 kts 143°
2026-05-06 18:19 45.95627 15.12308 38926 ft 454 kts 144°
2026-05-06 18:19 45.90916 15.18250 38891 ft 455 kts 143°
2026-05-06 18:20 45.86154 15.24241 38911 ft 457 kts 143°
2026-05-06 18:20 45.81370 15.30247 38911 ft 456 kts 143°
2026-05-06 18:21 45.76679 15.36380 38904 ft 460 kts 137°
2026-05-06 18:21 45.72347 15.43033 38909 ft 461 kts 137°
2026-05-06 18:22 45.67998 15.49757 38921 ft 461 kts 137°
2026-05-06 18:22 45.63648 15.56474 38920 ft 460 kts 137°
2026-05-06 18:23 45.59293 15.63182 38918 ft 460 kts 137°
2026-05-06 18:23 45.54943 15.69867 38926 ft 461 kts 137°
2026-05-06 18:24 45.50611 15.76510 38903 ft 460 kts 137°
2026-05-06 18:24 45.46243 15.83187 38918 ft 461 kts 137°
2026-05-06 18:25 45.41865 15.89866 38922 ft 462 kts 137°
2026-05-06 18:25 45.37485 15.96530 38917 ft 462 kts 137°
2026-05-06 18:26 45.33119 16.03159 38925 ft 462 kts 138°
2026-05-06 18:26 45.28724 16.09815 38918 ft 462 kts 137°
2026-05-06 18:27 45.24325 16.16460 38918 ft 462 kts 137°
2026-05-06 18:27 45.22274 16.19552 38751 ft 462 kts 137°
2026-05-06 18:27 45.20078 16.22860 37876 ft 465 kts 137°
2026-05-06 18:28 45.17871 16.26182 37265 ft 462 kts 138°
2026-05-06 18:28 45.15696 16.29452 37297 ft 447 kts 138°
2026-05-06 18:28 45.13613 16.32577 37010 ft 439 kts 138°
2026-05-06 18:28 45.11496 16.35750 36526 ft 449 kts 138°
2026-05-06 18:29 45.09334 16.38987 36028 ft 454 kts 138°
2026-05-06 18:29 45.07154 16.42249 35545 ft 456 kts 138°
2026-05-06 18:29 45.02840 16.48690 36111 ft 444 kts 138°
2026-05-06 18:30 45.00766 16.51781 36738 ft 434 kts 138°
2026-05-06 18:30 44.98716 16.54832 37373 ft 422 kts 138°
2026-05-06 18:30 44.96723 16.57796 38014 ft 409 kts 139°
2026-05-06 18:30 44.94790 16.60668 38633 ft 396 kts 139°
2026-05-06 18:31 44.92916 16.63449 38915 ft 388 kts 139°
2026-05-06 18:31 44.91062 16.66199 38977 ft 387 kts 139°
2026-05-06 18:31 44.87354 16.71686 38951 ft 388 kts 139°
2026-05-06 18:32 44.83657 16.77147 38939 ft 388 kts 139°
2026-05-06 18:32 44.79886 16.82703 37460 ft 413 kts 139°
2026-05-06 18:33 44.77766 16.85821 35271 ft 461 kts 139°
2026-05-06 18:33 44.75561 16.89074 35071 ft 457 kts 139°
2026-05-06 18:33 44.73353 16.92320 35192 ft 460 kts 140°
2026-05-06 18:33 44.71108 16.95554 35283 ft 461 kts 144°
2026-05-06 18:34 44.68738 16.98453 35388 ft 462 kts 146°
2026-05-06 18:34 44.66295 17.01406 35492 ft 465 kts 146°
2026-05-06 18:34 44.63826 17.04369 35602 ft 468 kts 146°
2026-05-06 18:34 44.61342 17.07343 35701 ft 471 kts 146°
2026-05-06 18:35 44.58851 17.10320 35819 ft 472 kts 146°
2026-05-06 18:35 44.56348 17.13307 35922 ft 472 kts 146°
2026-05-06 18:35 44.53837 17.16298 36040 ft 472 kts 146°
2026-05-06 18:35 44.51335 17.19278 36152 ft 472 kts 146°
2026-05-06 18:36 44.48875 17.22203 36260 ft 472 kts 146°
2026-05-06 18:36 44.46372 17.25175 36364 ft 472 kts 146°
2026-05-06 18:36 44.43875 17.28138 36477 ft 472 kts 146°
2026-05-06 18:36 44.41371 17.31104 36576 ft 471 kts 146°
2026-05-06 18:37 44.38878 17.34055 36685 ft 471 kts 146°
2026-05-06 18:37 44.37220 17.36016 36756 ft 471 kts 145°
2026-05-06 18:37 44.33871 17.39971 36936 ft 470 kts 145°
2026-05-06 18:37 44.31381 17.42908 37006 ft 470 kts 145°
2026-05-06 18:38 44.26398 17.48776 37209 ft 469 kts 145°
2026-05-06 18:38 44.23932 17.51674 37329 ft 470 kts 145°
2026-05-06 18:38 44.21423 17.54619 37433 ft 470 kts 145°
2026-05-06 18:39 44.18925 17.57547 37556 ft 470 kts 145°
2026-05-06 18:39 44.16429 17.60473 37688 ft 469 kts 145°
2026-05-06 18:40 44.09076 17.69456 37998 ft 470 kts 142°
2026-05-06 18:40 44.06678 17.72517 38133 ft 470 kts 143°
2026-05-06 18:40 44.04293 17.75548 38239 ft 470 kts 143°
2026-05-06 18:40 44.01882 17.78606 38342 ft 470 kts 143°
2026-05-06 18:41 43.99460 17.81673 38470 ft 471 kts 143°
2026-05-06 18:41 43.97044 17.84730 38588 ft 471 kts 143°
2026-05-06 18:41 43.94614 17.87799 38673 ft 471 kts 143°
2026-05-06 18:42 43.89779 17.93899 38876 ft 471 kts 143°
2026-05-06 18:42 43.87377 17.96924 38977 ft 472 kts 143°
2026-05-06 18:42 43.84947 17.99981 39008 ft 472 kts 143°
2026-05-06 18:43 43.80096 18.06072 39014 ft 470 kts 143°
2026-05-06 18:43 43.75251 18.12140 39033 ft 471 kts 143°
2026-05-06 18:44 43.70388 18.18218 39001 ft 471 kts 143°
2026-05-06 18:44 43.65519 18.24290 39008 ft 473 kts 143°
2026-05-06 18:45 43.60679 18.30313 39015 ft 472 kts 143°
2026-05-06 18:45 43.55806 18.36361 39052 ft 472 kts 143°
2026-05-06 18:46 43.50920 18.42412 39052 ft 472 kts 143°
2026-05-06 18:46 43.46038 18.48445 39033 ft 473 kts 143°
2026-05-06 18:47 43.41158 18.54462 39046 ft 474 kts 143°
2026-05-06 18:47 43.36261 18.60485 39037 ft 473 kts 143°
2026-05-06 18:48 43.31345 18.66520 39039 ft 474 kts 143°
2026-05-06 18:48 43.26422 18.72548 39042 ft 473 kts 143°
2026-05-06 18:49 43.21500 18.78562 39010 ft 474 kts 143°
2026-05-06 18:49 43.16623 18.84508 39101 ft 474 kts 143°
2026-05-06 18:50 43.11725 18.90467 39060 ft 474 kts 143°
2026-05-06 18:50 43.06756 18.96496 39057 ft 474 kts 143°
2026-05-06 18:51 43.01814 19.02480 39060 ft 474 kts 143°
2026-05-06 18:51 42.96919 19.08396 39069 ft 476 kts 143°
2026-05-06 18:52 42.91939 19.14399 39080 ft 477 kts 142°
2026-05-06 18:52 42.86971 19.20374 39068 ft 475 kts 142°
2026-05-06 18:53 42.82023 19.26312 39072 ft 475 kts 142°
2026-05-06 18:53 42.77091 19.32218 39082 ft 475 kts 142°
2026-05-06 18:54 42.72113 19.38167 39077 ft 478 kts 142°
2026-05-06 18:54 42.67099 19.44145 39077 ft 479 kts 142°
2026-05-06 18:55 42.62097 19.50099 39078 ft 480 kts 142°
2026-05-06 18:55 42.57109 19.56021 39076 ft 480 kts 142°
2026-05-06 18:56 42.52006 19.61842 39102 ft 478 kts 145°
2026-05-06 18:56 42.46785 19.67496 39045 ft 481 kts 145°
2026-05-06 18:57 42.41566 19.73174 39096 ft 483 kts 144°
2026-05-06 18:57 42.36322 19.78869 39060 ft 483 kts 144°
2026-05-06 18:58 42.31120 19.84508 39074 ft 483 kts 144°
2026-05-06 18:58 42.25874 19.90179 39079 ft 483 kts 144°
2026-05-06 18:59 42.20686 19.95777 39085 ft 483 kts 144°
2026-05-06 18:59 42.15434 20.01431 39092 ft 483 kts 144°
2026-05-06 19:00 42.10209 20.07044 39077 ft 483 kts 144°
2026-05-06 19:00 42.04923 20.12710 39086 ft 484 kts 144°
2026-05-06 19:01 41.99669 20.18331 39078 ft 481 kts 144°
2026-05-06 19:01 41.94422 20.23931 39081 ft 481 kts 144°
2026-05-06 19:02 41.89193 20.29499 39070 ft 481 kts 144°
2026-05-06 19:02 41.83989 20.35030 39077 ft 481 kts 144°
2026-05-06 19:03 41.78737 20.40600 39076 ft 481 kts 144°
2026-05-06 19:03 41.73484 20.46160 39072 ft 482 kts 144°
2026-05-06 19:04 41.68225 20.51714 39068 ft 480 kts 145°
2026-05-06 19:04 41.63039 20.57201 39062 ft 479 kts 145°
2026-05-06 19:05 41.57816 20.62717 39064 ft 479 kts 145°
2026-05-06 19:05 41.52585 20.68230 39056 ft 479 kts 144°
2026-05-06 19:06 41.47340 20.73746 39067 ft 480 kts 144°
2026-05-06 19:06 41.42107 20.79238 39076 ft 480 kts 145°
2026-05-06 19:07 41.36904 20.84687 39091 ft 475 kts 144°
2026-05-06 19:07 41.31726 20.90098 39087 ft 473 kts 144°
2026-05-06 19:08 41.26565 20.95480 39077 ft 473 kts 144°
2026-05-06 19:08 41.21384 21.00871 39085 ft 473 kts 144°
2026-05-06 19:09 41.16234 21.06220 39075 ft 473 kts 144°
2026-05-06 19:09 41.11037 21.11607 39055 ft 473 kts 144°
2026-05-06 19:10 41.05862 21.16959 39063 ft 473 kts 144°
2026-05-06 19:10 41.00681 21.22308 39041 ft 471 kts 144°
2026-05-06 19:11 40.95538 21.27605 39054 ft 472 kts 144°
2026-05-06 19:11 40.90359 21.32931 39043 ft 472 kts 144°
2026-05-06 19:12 40.85074 21.38014 39053 ft 471 kts 147°
2026-05-06 19:12 40.79705 21.42995 39048 ft 472 kts 147°
2026-05-06 19:13 40.74376 21.47951 39049 ft 472 kts 147°
2026-05-06 19:13 40.69013 21.52932 39051 ft 472 kts 147°
2026-05-06 19:14 40.63656 21.57896 39046 ft 471 kts 147°
2026-05-06 19:14 40.58295 21.62855 39054 ft 472 kts 147°
2026-05-06 19:15 40.52946 21.67791 39061 ft 472 kts 147°
2026-05-06 19:15 40.47580 21.72735 39082 ft 471 kts 147°
2026-05-06 19:16 40.42223 21.77660 39089 ft 471 kts 147°
2026-05-06 19:16 40.36848 21.82591 39101 ft 471 kts 147°
2026-05-06 19:17 40.31468 21.87518 39108 ft 471 kts 148°
2026-05-06 19:17 40.26133 21.92393 39089 ft 471 kts 148°
2026-05-06 19:18 40.20754 21.97300 39096 ft 471 kts 148°
2026-05-06 19:18 40.15378 22.02193 39089 ft 471 kts 148°
2026-05-06 19:19 40.09994 22.07085 39070 ft 471 kts 148°
2026-05-06 19:19 40.04622 22.11956 39053 ft 471 kts 148°
2026-05-06 19:20 39.99273 22.16798 39049 ft 470 kts 148°
2026-05-06 19:20 39.93903 22.21647 39051 ft 470 kts 148°
2026-05-06 19:21 39.88537 22.26484 39044 ft 470 kts 148°
2026-05-06 19:21 39.83167 22.31316 39045 ft 470 kts 148°
2026-05-06 19:22 39.77828 22.36110 39042 ft 470 kts 148°
2026-05-06 19:22 39.72445 22.40935 39043 ft 470 kts 148°
2026-05-06 19:23 39.67064 22.45747 39040 ft 470 kts 148°
2026-05-06 19:23 39.61684 22.50552 39040 ft 470 kts 147°
2026-05-06 19:24 39.56327 22.55325 39041 ft 470 kts 147°
2026-05-06 19:24 39.50947 22.60110 39027 ft 469 kts 147°
2026-05-06 19:25 39.45561 22.64891 39044 ft 470 kts 147°
2026-05-06 19:25 39.40179 22.69659 39048 ft 469 kts 147°
2026-05-06 19:26 39.34828 22.74390 39044 ft 469 kts 147°
2026-05-06 19:26 39.29434 22.79152 39054 ft 470 kts 147°
2026-05-06 19:27 39.24033 22.83910 39046 ft 470 kts 147°
2026-05-06 19:27 39.18644 22.88648 39047 ft 470 kts 147°
2026-05-06 19:28 39.13288 22.93349 39044 ft 470 kts 147°
2026-05-06 19:28 39.07883 22.98085 39042 ft 470 kts 147°
2026-05-06 19:29 39.02483 23.02805 39053 ft 470 kts 147°
2026-05-06 19:29 38.97085 23.07516 39044 ft 470 kts 147°
2026-05-06 19:30 38.91684 23.12221 39055 ft 470 kts 147°
2026-05-06 19:30 38.86289 23.16911 39050 ft 471 kts 147°
2026-05-06 19:31 38.80879 23.21606 39047 ft 470 kts 148°
2026-05-06 19:31 38.72752 23.28642 39044 ft 470 kts 148°
2026-05-06 19:32 38.67325 23.33330 39051 ft 471 kts 148°
2026-05-06 19:32 38.61928 23.37984 39056 ft 471 kts 148°
2026-05-06 19:33 38.56505 23.42650 39058 ft 471 kts 148°
2026-05-06 19:33 38.51079 23.47311 39060 ft 471 kts 147°
2026-05-06 19:34 38.45651 23.51966 39061 ft 471 kts 147°
2026-05-06 19:34 38.40241 23.56596 39067 ft 472 kts 147°
2026-05-06 19:35 38.34806 23.61241 39068 ft 471 kts 147°
2026-05-06 19:35 38.29352 23.65894 39068 ft 471 kts 148°
2026-05-06 19:36 38.24827 23.69748 39070 ft 471 kts 148°
2026-05-06 19:36 38.19383 23.74376 39073 ft 471 kts 148°
2026-05-06 19:37 38.13117 23.79856 39076 ft 470 kts 146°
2026-05-06 19:37 38.08640 23.83793 39079 ft 470 kts 146°
2026-05-06 19:38 38.03266 23.88510 39069 ft 470 kts 146°
2026-05-06 19:38 37.97018 23.93982 39073 ft 470 kts 147°
2026-05-06 19:39 37.92505 23.97927 39099 ft 470 kts 147°
2026-05-06 19:39 37.87168 24.02585 39100 ft 469 kts 147°
2026-05-06 19:40 37.81792 24.07269 39093 ft 469 kts 147°
2026-05-06 19:40 37.76432 24.11931 39087 ft 469 kts 147°
2026-05-06 19:41 37.71050 24.16603 39084 ft 469 kts 147°
2026-05-06 19:41 37.65708 24.21231 39068 ft 469 kts 147°
2026-05-06 19:42 37.60343 24.25874 39073 ft 468 kts 147°
2026-05-06 19:42 37.55079 24.30667 39062 ft 469 kts 137°
2026-05-06 19:43 37.50439 24.36446 39065 ft 470 kts 136°
2026-05-06 19:43 37.45791 24.42202 39078 ft 471 kts 136°
2026-05-06 19:44 37.41149 24.47952 39080 ft 472 kts 136°
2026-05-06 19:44 37.36489 24.53714 39085 ft 471 kts 136°
2026-05-06 19:45 37.31809 24.59491 39077 ft 471 kts 136°
2026-05-06 19:45 37.27131 24.65254 39080 ft 471 kts 136°
2026-05-06 19:46 37.22494 24.70957 39075 ft 471 kts 136°
2026-05-06 19:46 37.17815 24.76701 39088 ft 471 kts 136°
2026-05-06 19:47 37.13136 24.82433 39093 ft 471 kts 137°
2026-05-06 19:47 37.08455 24.88158 39078 ft 470 kts 137°
2026-05-06 19:48 37.03769 24.93879 39100 ft 470 kts 137°
2026-05-06 19:48 36.99127 24.99535 39100 ft 470 kts 137°
2026-05-06 19:49 36.94444 25.05233 39099 ft 471 kts 137°
2026-05-06 19:49 36.89708 25.10906 39100 ft 471 kts 137°
2026-05-06 19:50 36.84967 25.16544 39096 ft 471 kts 137°
2026-05-06 19:50 36.80249 25.22150 39092 ft 471 kts 137°
2026-05-06 19:51 36.75505 25.27774 39087 ft 470 kts 138°
2026-05-06 19:51 36.70767 25.33382 39089 ft 470 kts 138°
2026-05-06 19:52 36.66025 25.38994 39079 ft 472 kts 137°
2026-05-06 19:52 36.61326 25.44713 39087 ft 472 kts 137°
2026-05-06 19:53 36.56657 25.50376 39089 ft 472 kts 137°
2026-05-06 19:53 36.51950 25.56073 39100 ft 472 kts 137°
2026-05-06 19:54 36.47254 25.61747 39092 ft 472 kts 137°
2026-05-06 19:54 36.42579 25.67384 39101 ft 471 kts 137°
2026-05-06 19:55 36.37877 25.73046 39096 ft 471 kts 137°
2026-05-06 19:55 36.33172 25.78700 39092 ft 471 kts 137°
2026-05-06 19:56 36.28469 25.84342 39096 ft 471 kts 137°
2026-05-06 19:56 36.24241 25.90349 39055 ft 455 kts 97°
2026-05-06 19:57 36.24777 25.93325 33398 ft 201 kts 23°
2026-05-06 19:57 36.26319 25.93658 26187 ft 263 kts 349°
2026-05-06 19:57 36.28224 25.93219 25209 ft 279 kts 337°
2026-05-06 19:57 36.30078 25.92247 23541 ft 309 kts 335°
2026-05-06 19:58 36.32274 25.91312 22417 ft 338 kts 344°
2026-05-06 19:58 36.34634 25.90781 22547 ft 354 kts 352°
2026-05-06 19:58 36.37167 25.90678 21840 ft 373 kts 359°
2026-05-06 19:58 36.39767 25.91246 20749 ft 391 kts 18°
2026-05-06 19:59 36.42088 25.93010 20031 ft 404 kts 40°
2026-05-06 19:59 36.43861 25.95697 20223 ft 408 kts 53°
2026-05-06 19:59 36.45092 25.98923 20487 ft 420 kts 69°
2026-05-06 19:59 36.45491 26.02549 20854 ft 433 kts 90°
2026-05-06 20:00 36.44823 26.06231 21215 ft 445 kts 111°
2026-05-06 20:00 36.43133 26.09454 21620 ft 452 kts 133°
2026-05-06 20:00 36.40639 26.11829 22044 ft 455 kts 154°
2026-05-06 20:00 36.37657 26.12994 22713 ft 448 kts 173°
2026-05-06 20:01 36.34595 26.13649 23287 ft 448 kts 169°
2026-05-06 20:01 36.31582 26.14477 23775 ft 448 kts 168°
2026-05-06 20:01 36.28572 26.15327 23673 ft 448 kts 168°
2026-05-06 20:01 36.25524 26.16243 23510 ft 450 kts 167°
2026-05-06 20:02 36.22471 26.17156 23847 ft 454 kts 167°
2026-05-06 20:02 36.19407 26.18082 24135 ft 458 kts 167°
2026-05-06 20:02 36.16295 26.19019 24437 ft 462 kts 168°
2026-05-06 20:02 36.13158 26.19958 24736 ft 465 kts 168°
2026-05-06 20:03 36.10039 26.20891 25029 ft 468 kts 168°
2026-05-06 20:03 36.06872 26.21833 25371 ft 470 kts 168°
2026-05-06 20:03 36.03692 26.22770 25791 ft 469 kts 168°
2026-05-06 20:03 36.00531 26.23699 26336 ft 466 kts 168°
2026-05-06 20:04 35.97385 26.24626 26859 ft 463 kts 168°
2026-05-06 20:04 35.94352 26.25881 27375 ft 463 kts 154°
2026-05-06 20:04 35.91671 26.28045 27924 ft 460 kts 139°
2026-05-06 20:04 35.89297 26.30675 28511 ft 456 kts 138°
2026-05-06 20:05 35.86965 26.33308 29082 ft 453 kts 137°
2026-05-06 20:05 35.84700 26.35903 29656 ft 448 kts 137°
2026-05-06 20:05 35.82438 26.38520 30242 ft 444 kts 137°
2026-05-06 20:05 35.80206 26.41111 30748 ft 439 kts 137°
2026-05-06 20:06 35.77988 26.43689 31164 ft 437 kts 137°
2026-05-06 20:06 35.75783 26.46251 31502 ft 437 kts 137°
2026-05-06 20:06 35.73571 26.48818 31824 ft 437 kts 137°
2026-05-06 20:06 35.71361 26.51382 32149 ft 437 kts 137°
2026-05-06 20:07 35.69153 26.53942 32478 ft 436 kts 137°
2026-05-06 20:07 35.66974 26.56466 32806 ft 435 kts 137°
2026-05-06 20:07 35.64769 26.59018 33143 ft 434 kts 137°
2026-05-06 20:07 35.62579 26.61550 33480 ft 433 kts 137°
2026-05-06 20:08 35.60382 26.64088 33824 ft 431 kts 137°
2026-05-06 20:08 35.58212 26.66595 34157 ft 429 kts 137°
2026-05-06 20:08 35.56042 26.69097 34446 ft 427 kts 137°
2026-05-06 20:08 35.53886 26.71582 34750 ft 424 kts 137°
2026-05-06 20:09 35.51746 26.74048 35052 ft 421 kts 137°
2026-05-06 20:09 35.49616 26.76499 35363 ft 417 kts 137°
2026-05-06 20:09 35.47534 26.78894 35665 ft 414 kts 138°
2026-05-06 20:09 35.45441 26.81299 35971 ft 410 kts 138°
2026-05-06 20:10 35.43377 26.83670 36277 ft 405 kts 138°
2026-05-06 20:10 35.41352 26.85994 36575 ft 400 kts 138°
2026-05-06 20:10 35.39334 26.88307 36883 ft 394 kts 138°
2026-05-06 20:10 35.37351 26.90582 37176 ft 388 kts 139°
2026-05-06 20:11 35.35399 26.92818 37466 ft 380 kts 139°
2026-05-06 20:11 35.33491 26.94999 37753 ft 372 kts 139°
2026-05-06 20:11 35.31612 26.97146 38027 ft 363 kts 139°
2026-05-06 20:11 35.29793 26.99224 38288 ft 352 kts 139°
2026-05-06 20:12 35.28055 27.01210 38566 ft 339 kts 139°
2026-05-06 20:12 35.26362 27.03140 38683 ft 330 kts 140°
2026-05-06 20:12 35.24664 27.05065 38303 ft 337 kts 140°
2026-05-06 20:12 35.22911 27.07040 37743 ft 347 kts 140°
2026-05-06 20:13 35.21132 27.09031 37484 ft 347 kts 140°
2026-05-06 20:13 35.19371 27.10995 37605 ft 338 kts 140°
2026-05-06 20:13 35.17684 27.12940 37740 ft 329 kts 136°
2026-05-06 20:13 35.16141 27.14963 37532 ft 332 kts 133°
2026-05-06 20:14 35.14575 27.17101 37081 ft 342 kts 135°
2026-05-06 20:14 35.12890 27.19162 36836 ft 344 kts 139°
2026-05-06 20:14 35.09292 27.22813 36972 ft 329 kts 140°
2026-05-06 20:15 35.07603 27.24751 36494 ft 343 kts 136°
2026-05-06 20:15 35.05891 27.26889 35500 ft 359 kts 137°
2026-05-06 20:15 35.04048 27.28919 35257 ft 352 kts 143°
2026-05-06 20:15 35.02177 27.30683 35718 ft 330 kts 144°
2026-05-06 20:16 35.00346 27.32431 35248 ft 352 kts 143°
2026-05-06 20:16 34.98418 27.34350 35044 ft 356 kts 141°
2026-05-06 20:16 34.94672 27.38385 35021 ft 364 kts 136°
2026-05-06 20:17 34.91168 27.42832 35104 ft 365 kts 137°
2026-05-06 20:17 34.87469 27.47119 35123 ft 370 kts 138°
2026-05-06 20:18 34.83689 27.51396 35109 ft 378 kts 138°
2026-05-06 20:18 34.79787 27.55776 35119 ft 386 kts 138°
2026-05-06 20:19 34.75786 27.60256 35108 ft 395 kts 139°
2026-05-06 20:19 34.71688 27.64836 35109 ft 406 kts 139°
2026-05-06 20:20 34.67501 27.69510 35105 ft 417 kts 138°
2026-05-06 20:20 34.63183 27.74323 35213 ft 425 kts 139°
2026-05-06 20:21 34.61000 27.76753 35323 ft 428 kts 139°
2026-05-06 20:21 34.58804 27.79197 35438 ft 430 kts 139°
2026-05-06 20:21 34.56595 27.81653 35552 ft 433 kts 139°
2026-05-06 20:21 34.54370 27.84125 35668 ft 435 kts 139°
2026-05-06 20:22 34.52129 27.86612 35777 ft 438 kts 139°
2026-05-06 20:22 34.49903 27.89081 35893 ft 440 kts 139°
2026-05-06 20:22 34.47645 27.91584 36018 ft 443 kts 139°
2026-05-06 20:22 34.45373 27.94101 36123 ft 445 kts 139°
2026-05-06 20:23 34.43080 27.96638 36254 ft 447 kts 139°
2026-05-06 20:23 34.40775 27.99186 36394 ft 448 kts 139°
2026-05-06 20:23 34.38473 28.01730 36536 ft 450 kts 139°
2026-05-06 20:23 34.36153 28.04291 36677 ft 451 kts 139°
2026-05-06 20:24 34.33825 28.06860 36827 ft 453 kts 139°
2026-05-06 20:24 34.31501 28.09421 36958 ft 454 kts 139°
2026-05-06 20:24 34.29849 28.11241 37057 ft 455 kts 139°
2026-05-06 22:04 34.28823 28.12377 37227 ft 439 kts 140°
2026-05-06 22:04 34.26666 28.14699 38181 ft 393 kts 142°
2026-05-06 22:04 34.24662 28.16693 38498 ft 368 kts 146°
2026-05-06 22:04 34.22583 28.18525 37409 ft 378 kts 149°
2026-05-06 22:05 34.20253 28.20253 35612 ft 409 kts 154°
2026-05-06 22:05 34.17622 28.21788 34415 ft 425 kts 160°
2026-05-06 22:05 34.14885 28.22927 34376 ft 402 kts 168°
2026-05-06 22:05 34.12272 28.23569 34777 ft 367 kts 176°
2026-05-06 22:06 34.09806 28.23935 34700 ft 353 kts 173°
2026-05-06 22:06 34.07377 28.24578 33797 ft 366 kts 167°
2026-05-06 22:06 34.05262 28.25351 32675 ft 385 kts 163°